Location: Piolenc
(44.1794°N, 4.7641°E)
Time: 03:08:24
(UTC+00:00)

STARLINK-2117 - Pass Details

Date: 27 January 2021
Orbit: 379 x 380 km, 53.1° (Epoch: 27 February)

Event Time Altitude Azimuth Distance (km) Brightness Sun altitude
Exits shadow 05:45:40 11° 221° (SW) 1,360 5.3 -14.1°
Maximum altitude 05:48:39 59° 142° (SE) 455 3.4 -13.6°
Drops below altitude 10° 05:51:48 10° 62° (ENE) 1,424 6.5 -13.0°
Sets 05:53:53 0° 58° (ENE) 2,285 7.5 -12.7°
